| time (UTC) | temp C | wind direction | speed KPH | gust KPH | rain 1hr cm | rain 24hr cm | rain mn cm | humidity % | barometer mb |
| 20260502222728 | 20 | 225 | 8.0 | 14.5 | 0.00 | 0.00 | 0.00 | 24 | 1016.2 |
| 20260502221736 | 20 | 190 | 9.7 | 12.9 | 0.00 | 0.00 | 0.00 | 22 | 1016.4 |
| 20260502220723 | 20 | 250 | 1.6 | 11.3 | 0.00 | 0.00 | 0.00 | 21 | 1016.5 |
| 20260502215737 | 20 | 225 | 4.8 | 14.5 | 0.00 | 0.00 | 0.00 | 24 | 1016.7 |
| 20260502214742 | 20 | 204 | 8.0 | 19.3 | 0.00 | 0.00 | 0.00 | 23 | 1016.9 |
| 20260502213750 | 20 | 207 | 8.0 | 12.9 | 0.00 | 0.00 | 0.00 | 23 | 1017.0 |
| 20260502212720 | 20 | 205 | 8.0 | 22.5 | 0.00 | 0.00 | 0.00 | 24 | 1017.1 |
| 20260502211728 | 20 | 212 | 14.5 | 19.3 | 0.00 | 0.00 | 0.00 | 23 | 1017.2 |
| 20260502210716 | 20 | 211 | 9.7 | 19.3 | 0.00 | 0.00 | 0.00 | 24 | 1017.3 |
| 20260502205731 | 20 | 267 | 6.4 | 16.1 | 0.00 | 0.00 | 0.00 | 25 | 1017.5 |
| 20260502204719 | 20 | 196 | 9.7 | 22.5 | 0.00 | 0.00 | 0.00 | 23 | 1017.5 |
| 20260502203724 | 20 | 236 | 9.7 | 17.7 | 0.00 | 0.00 | 0.00 | 25 | 1017.6 |
| 20260502202730 | 20 | 150 | 6.4 | 12.9 | 0.00 | 0.00 | 0.00 | 27 | 1017.8 |
| 20260502201718 | 20 | 207 | 6.4 | 12.9 | 0.00 | 0.00 | 0.00 | 27 | 1017.9 |
| 20260502200722 | 19 | 136 | 3.2 | 16.1 | 0.00 | 0.00 | 0.00 | 27 | 1018.0 |
| 20260502195734 | 19 | 219 | 4.8 | 22.5 | 0.00 | 0.00 | 0.00 | 27 | 1018.1 |
| 20260502194720 | 19 | 196 | 8.0 | 17.7 | 0.00 | 0.00 | 0.00 | 28 | 1018.2 |
| 20260502193726 | 18 | 180 | 8.0 | 14.5 | 0.00 | 0.00 | 0.00 | 29 | 1018.2 |
| 20260502192716 | 18 | 184 | 3.2 | 12.9 | 0.00 | 0.00 | 0.00 | 26 | 1018.3 |
| 20260502191738 | 18 | 250 | 6.4 | 12.9 | 0.00 | 0.00 | 0.00 | 30 | 1018.5 |
| 20260502190723 | 18 | 198 | 3.2 | 14.5 | 0.00 | 0.00 | 0.00 | 32 | 1018.7 |
| 20260502185717 | 18 | 190 | 9.7 | 14.5 | 0.00 | 0.00 | 0.00 | 32 | 1018.8 |
| 20260502184730 | 17 | 160 | 8.0 | 12.9 | 0.00 | 0.00 | 0.00 | 34 | 1018.9 |
| 20260502183756 | 17 | 159 | 6.4 | 9.7 | 0.00 | 0.00 | 0.00 | 33 | 1019.1 |
| 20260502182721 | 17 | 213 | 4.8 | 9.7 | 0.00 | 0.00 | 0.00 | 36 | 1019.1 |
| 20260502181745 | 17 | 143 | 3.2 | 9.7 | 0.00 | 0.00 | 0.00 | 36 | 1019.2 |
| 20260502180727 | 17 | 144 | 0.0 | 11.3 | 0.00 | 0.00 | 0.00 | 36 | 1019.4 |
| 20260502163720 | 13 | 346 | 3.2 | 9.7 | 0.00 | 0.00 | 0.00 | 48 | 1019.7 |
| 20260502162731 | 12 | 332 | 3.2 | 8.0 | 0.00 | 0.00 | 0.00 | 51 | 1019.8 |
| 20260502161735 | 12 | 345 | 1.6 | 6.4 | 0.00 | 0.00 | 0.00 | 53 | 1019.9 |
| 20260502160721 | 11 | 360 | 3.2 | 8.0 | 0.00 | 0.00 | 0.00 | 54 | 1019.9 |
| 20260502151729 | 8 | 257 | 1.6 | 4.8 | 0.00 | 0.00 | 0.00 | 64 | 1020.0 |
| 20260502150731 | 8 | 235 | 1.6 | 4.8 | 0.00 | 0.00 | 0.00 | 66 | 1020.0 |
| 20260502130732 | 2 | 306 | 1.6 | 3.2 | 0.00 | 0.00 | 0.00 | 81 | 1019.7 |
| 20260502123719 | 2 | 306 | 0.0 | 4.8 | 0.00 | 0.00 | 0.00 | 79 | 1019.6 |
| 20260502122747 | 2 | 306 | 3.2 | 4.8 | 0.00 | 0.00 | 0.00 | 79 | 1019.6 |
| 20260502121730 | 2 | 30 | 0.0 | 3.2 | 0.00 | 0.00 | 0.00 | 79 | 1019.4 |
| 20260502120729 | 2 | 30 | 1.6 | 4.8 | 0.00 | 0.00 | 0.00 | 78 | 1019.4 |
| 20260502115727 | 2 | 30 | 0.0 | 3.2 | 0.00 | 0.00 | 0.00 | 78 | 1019.3 |
| 20260502114735 | 2 | 30 | 1.6 | 4.8 | 0.00 | 0.00 | 0.00 | 77 | 1019.3 |
| 20260502113739 | 2 | 29 | 0.0 | 3.2 | 0.00 | 0.00 | 0.00 | 77 | 1019.4 |
| 20260502112746 | 2 | 29 | 0.0 | 0.0 | 0.00 | 0.00 | 0.00 | 76 | 1019.4 |
| 20260502111731 | 3 | 29 | 1.6 | 4.8 | 0.00 | 0.00 | 0.00 | 75 | 1019.4 |
| 20260502110717 | 3 | 29 | 4.8 | 6.4 | 0.00 | 0.00 | 0.00 | 76 | 1019.4 |
| 20260502105728 | 3 | 335 | 4.8 | 6.4 | 0.00 | 0.00 | 0.00 | 75 | 1019.6 |
| 20260502104753 | 3 | 305 | 3.2 | 4.8 | 0.00 | 0.00 | 0.00 | 75 | 1019.5 |
| 20260502103717 | 3 | 302 | 1.6 | 3.2 | 0.00 | 0.00 | 0.00 | 75 | 1019.6 |
| 20260502102727 | 3 | 301 | 0.0 | 3.2 | 0.00 | 0.00 | 0.00 | 74 | 1019.5 |
| 20260502101735 | 4 | 301 | 0.0 | 4.8 | 0.00 | 0.00 | 0.00 | 73 | 1019.4 |
| 20260502100741 | 4 | 57 | 0.0 | 0.0 | 0.00 | 0.00 | 0.00 | 73 | 1019.3 |
| 20260502090720 | 5 | 57 | 3.2 | 4.8 | 0.00 | 0.00 | 0.00 | 71 | 1019.2 |
| 20260502070730 | 6 | 109 | 1.6 | 6.4 | 0.00 | 0.00 | 0.00 | 65 | 1019.0 |
| 20260502065722 | 6 | 109 | 0.0 | 4.8 | 0.00 | 0.00 | 0.00 | 64 | 1018.9 |
| 20260502064724 | 6 | 109 | 4.8 | 6.4 | 0.00 | 0.00 | 0.00 | 63 | 1018.9 |
| 20260502063734 | 6 | 125 | 1.6 | 4.8 | 0.00 | 0.00 | 0.00 | 65 | 1018.9 |
| 20260502062718 | 6 | 125 | 0.0 | 6.4 | 0.00 | 0.00 | 0.00 | 64 | 1018.9 |
| 20260502061723 | 7 | 185 | 1.6 | 4.8 | 0.00 | 0.00 | 0.00 | 63 | 1019.0 |
| 20260502060730 | 7 | 186 | 1.6 | 4.8 | 0.00 | 0.00 | 0.00 | 63 | 1018.9 |
| 20260502055726 | 7 | 185 | 1.6 | 4.8 | 0.00 | 0.00 | 0.00 | 62 | 1018.9 |
| 20260502054739 | 7 | 186 | 1.6 | 3.2 | 0.00 | 0.00 | 0.00 | 61 | 1018.8 |
| 20260502053747 | 7 | 186 | 0.0 | 3.2 | 0.00 | 0.00 | 0.00 | 59 | 1018.6 |
| 20260502052734 | 8 | 186 | 4.8 | 9.7 | 0.00 | 0.00 | 0.00 | 57 | 1018.5 |
| 20260502051741 | 9 | 186 | 0.0 | 6.4 | 0.00 | 0.00 | 0.00 | 55 | 1018.6 |
| 20260502050727 | 9 | 107 | 4.8 | 9.7 | 0.00 | 0.00 | 0.00 | 53 | 1018.4 |
| 20260502045743 | 10 | 248 | 1.6 | 14.5 | 0.00 | 0.00 | 0.00 | 50 | 1018.4 |
| 20260502044731 | 12 | 282 | 4.8 | 16.1 | 0.00 | 0.00 | 0.00 | 37 | 1018.3 |
| 20260502043719 | 12 | 67 | 8.0 | 12.9 | 0.00 | 0.00 | 0.00 | 37 | 1018.1 |
| 20260502042747 | 13 | 69 | 1.6 | 8.0 | 0.00 | 0.00 | 0.00 | 37 | 1018.2 |
| 20260502041718 | 13 | 73 | 8.0 | 17.7 | 0.00 | 0.00 | 0.00 | 34 | 1018.2 |
| 20260502040725 | 13 | 62 | 9.7 | 16.1 | 0.00 | 0.00 | 0.00 | 33 | 1018.1 |
| 20260502035717 | 13 | 78 | 12.9 | 17.7 | 0.00 | 0.00 | 0.00 | 33 | 1018.0 |
| 20260502034723 | 13 | 86 | 6.4 | 11.3 | 0.00 | 0.00 | 0.00 | 34 | 1017.9 |
| 20260502033734 | 14 | 74 | 1.6 | 12.9 | 0.00 | 0.00 | 0.00 | 35 | 1017.7 |
| 20260502032723 | 14 | 90 | 11.3 | 14.5 | 0.00 | 0.00 | 0.00 | 32 | 1017.6 |
| 20260502031748 | 14 | 82 | 11.3 | 16.1 | 0.00 | 0.00 | 0.00 | 33 | 1017.4 |
| 20260502030716 | 14 | 94 | 9.7 | 14.5 | 0.00 | 0.00 | 0.00 | 34 | 1017.3 |
| 20260502025730 | 14 | 78 | 8.0 | 14.5 | 0.00 | 0.00 | 0.00 | 36 | 1017.2 |
| 20260502024721 | 13 | 89 | 9.7 | 12.9 | 0.00 | 0.00 | 0.00 | 39 | 1017.1 |
| 20260502023726 | 14 | 336 | 4.8 | 4.8 | 0.00 | 0.00 | 0.00 | 43 | 1017.1 |
| 20260502022732 | 16 | 336 | 1.6 | 4.8 | 0.00 | 0.00 | 0.00 | 40 | 1016.9 |
| 20260502021724 | 17 | 336 | 3.2 | 4.8 | 0.00 | 0.00 | 0.00 | 38 | 1016.9 |
| 20260502020730 | 18 | 336 | 1.6 | 3.2 | 0.00 | 0.00 | 0.00 | 35 | 1016.9 |
| 20260502015723 | 19 | 336 | 0.0 | 3.2 | 0.00 | 0.00 | 0.00 | 27 | 1016.8 |
| 20260502014730 | 20 | 336 | 1.6 | 4.8 | 0.00 | 0.00 | 0.00 | 23 | 1016.7 |
| 20260502013721 | 20 | 331 | 3.2 | 8.0 | 0.00 | 0.00 | 0.00 | 23 | 1016.7 |
| 20260502012729 | 20 | 331 | 1.6 | 8.0 | 0.00 | 0.00 | 0.00 | 21 | 1016.7 |
| 20260502011735 | 20 | 360 | 3.2 | 8.0 | 0.00 | 0.00 | 0.00 | 22 | 1016.7 |
| 20260502010720 | 20 | 309 | 3.2 | 8.0 | 0.00 | 0.00 | 0.00 | 21 | 1016.7 |
| 20260502005718 | 20 | 325 | 4.8 | 9.7 | 0.00 | 0.00 | 0.00 | 21 | 1016.7 |
| 20260502004726 | 20 | 336 | 3.2 | 9.7 | 0.00 | 0.00 | 0.00 | 21 | 1016.7 |
| 20260502003733 | 20 | 291 | 4.8 | 12.9 | 0.00 | 0.00 | 0.00 | 22 | 1016.7 |
| 20260502002717 | 20 | 322 | 3.2 | 6.4 | 0.00 | 0.00 | 0.00 | 22 | 1016.8 |
| 20260502001743 | 20 | 320 | 3.2 | 14.5 | 0.00 | 0.00 | 0.00 | 21 | 1016.9 |
| 20260502000721 | 20 | 294 | 4.8 | 12.9 | 0.00 | 0.00 | 0.00 | 23 | 1016.9 |
| 20260501235732 | 20 | 258 | 3.2 | 14.5 | 0.00 | 0.00 | 0.00 | 24 | 1016.9 |
| 20260501234719 | 20 | 300 | 1.6 | 16.1 | 0.00 | 0.00 | 0.00 | 22 | 1016.9 |
| 20260501233726 | 20 | 346 | 1.6 | 14.5 | 0.00 | 0.00 | 0.00 | 24 | 1017.1 |
| 20260501232717 | 20 | 360 | 8.0 | 14.5 | 0.00 | 0.00 | 0.00 | 22 | 1017.1 |
| 20260501231724 | 20 | 303 | 3.2 | 9.7 | 0.00 | 0.00 | 0.00 | 23 | 1017.1 |
| 20260501230750 | 20 | 76 | 4.8 | 8.0 | 0.00 | 0.00 | 0.00 | 23 | 1017.1 |
| 20260501225722 | 20 | 304 | 3.2 | 14.5 | 0.00 | 0.00 | 0.00 | 25 | 1017.2 |
| 20260501224728 | 20 | 355 | 6.4 | 12.9 | 0.00 | 0.00 | 0.00 | 24 | 1017.2 |
| 20260501223720 | 19 | 9 | 3.2 | 17.7 | 0.00 | 0.00 | 0.00 | 23 | 1017.3 |